Weather in Megra

Russia / Vologda Oblast     60°51′58″N   35°59′48″E
В апреле 2022 года жителям России запретили посещать сайт meteo.paraplan.net по решению Генеральной прокуратуры. Аудитория сайта уменьшилась в 10 раз. Владельцы сайта не видят смысла в поддержке погодного сервера в таких условиях. Сайт будет закрыт в октябре.
temp.,
°C
wind,
m/s
gust,
m/s
humid.,
%
clouds,
%
prec.,
mm/h
press.,
hPa
HPBL,
m
25 september, sun
sun2500:00+6nne41096100 2.9 1007680
03:00+6ne3997100 4.8 1006610
06:00+5ne3897100 3.0 1006491
09:00+6ene2896100 3.4 1007467
12:00+9ese3685100 0.0 1007710
15:00+10ene3580100 0.1 1008468
18:00+9ene258999 0.1 1008136
21:00+8ene2693100 0.1 1009169
26 september, mon
mon2600:00+8e1497100 0.1 1009117
03:00+7ene1297100 0.1 100966
06:00+7ne1297100 0.0 100959
09:00+8n2491100 0.0 1009238
12:00+8nnw2698100 1.2 1008448
15:00+7ene2597100 4.7 1009313
18:00+6e2695100 0.5 1010399
21:00+5e2695100 0.6 1011482
27 september, tue
tue2700:00+5e2595100 0.0 1012412
03:00+5e2696100 0.0 1013376
06:00+5e2696100 0.0 1013407
09:00+6e2795100 0.0 1014453
12:00+8ese378996 0.0 1015582
15:00+9e3784100 0.1 1015646
18:00+8e3990100 0.0 1015596
21:00+8e41091100 0.1 1016637
28 september, wed
wed2800:00+8se499056 0.1 1017633
03:00+6ese399657 0.1 1017383
06:00+7ese4984100 0.0 1017724
09:00+7ese4108580 0.0 1017779
12:00+9ese597358 0.0 1017785
15:00+9e5968100 0.0 10161087
18:00+8e51169100 0.0 1015960
21:00+5e51366100 0.0 1015889
29 september, thu
thu2900:00+5e51369100 0.0 1014848
03:00+4e51375100 0.0 1013897
06:00+4ese51384100 0.0 1012851
09:00+3ese51486100 0.1 1012804
12:00+4ese51486100 0.1 1013785
15:00+4ese51289100 0.2 1014801
18:00+4se51192100 0.5 1015658
21:00+4se41193100 0.6 1017538